| time (UTC) | temp C | wind direction | speed KPH | gust KPH | rain 1hr cm | rain 24hr cm | rain mn cm | humidity % | barometer mb |
| 20260507200103 | 14 | 301 | 19.3 | 27.4 | 0.00 | 1.12 | 0.84 | 44 | 1006.2 |
| 20260507194547 | 15 | 297 | 17.7 | 30.6 | 0.00 | 1.12 | 0.84 | 41 | 1006.3 |
| 20260507193048 | 14 | 328 | 16.1 | 33.8 | 0.00 | 1.24 | 0.84 | 43 | 1006.4 |
| 20260507191544 | 13 | 326 | 20.9 | 32.2 | 0.00 | 1.24 | 0.84 | 45 | 1006.7 |
| 20260507190039 | 14 | 286 | 12.9 | 30.6 | 0.00 | 1.24 | 0.84 | 39 | 1006.8 |
| 20260507184541 | 13 | 292 | 19.3 | 30.6 | 0.00 | 1.24 | 0.84 | 46 | 1006.9 |
| 20260507183037 | 13 | 252 | 8.0 | 24.1 | 0.00 | 1.32 | 0.84 | 47 | 1007.1 |
| 20260507181537 | 13 | 319 | 11.3 | 25.7 | 0.00 | 1.32 | 0.84 | 43 | 1007.2 |
| 20260507180038 | 13 | 323 | 20.9 | 35.4 | 0.00 | 1.32 | 0.84 | 46 | 1007.2 |
| 20260507174536 | 13 | 312 | 16.1 | 27.4 | 0.00 | 1.32 | 0.84 | 42 | 1007.5 |
| 20260507173033 | 13 | 278 | 17.7 | 27.4 | 0.00 | 1.32 | 0.84 | 44 | 1007.5 |
| 20260507171530 | 13 | 303 | 22.5 | 30.6 | 0.00 | 1.32 | 0.84 | 44 | 1007.5 |
| 20260507170105 | 13 | 328 | 19.3 | 30.6 | 0.00 | 1.32 | 0.84 | 44 | 1007.5 |
| 20260507164604 | 12 | 308 | 22.5 | 32.2 | 0.00 | 1.32 | 0.84 | 45 | 1007.7 |
| 20260507163055 | 12 | 288 | 14.5 | 30.6 | 0.00 | 1.32 | 0.84 | 48 | 1008.0 |
| 20260507161653 | 12 | 247 | 8.0 | 22.5 | 0.00 | 1.32 | 0.84 | 46 | 1008.0 |
| 20260507160055 | 12 | 274 | 11.3 | 27.4 | 0.00 | 1.32 | 0.84 | 48 | 1008.2 |
| 20260507154555 | 12 | 268 | 11.3 | 25.7 | 0.00 | 1.32 | 0.84 | 49 | 1008.2 |
| 20260507153048 | 12 | 290 | 12.9 | 24.1 | 0.00 | 1.32 | 0.84 | 53 | 1008.3 |
| 20260507151546 | 11 | 339 | 12.9 | 22.5 | 0.00 | 1.32 | 0.84 | 56 | 1008.4 |
| 20260507150046 | 11 | 297 | 9.7 | 22.5 | 0.00 | 1.32 | 0.84 | 58 | 1008.4 |
| 20260507144545 | 11 | 315 | 12.9 | 22.5 | 0.00 | 1.32 | 0.84 | 63 | 1008.5 |
| 20260507143039 | 11 | 284 | 12.9 | 22.5 | 0.00 | 1.32 | 0.84 | 60 | 1008.5 |
| 20260507141542 | 11 | 296 | 12.9 | 17.7 | 0.00 | 1.32 | 0.84 | 59 | 1008.7 |
| 20260507140038 | 11 | 288 | 11.3 | 20.9 | 0.00 | 1.32 | 0.84 | 67 | 1008.6 |
| 20260507134538 | 11 | 291 | 11.3 | 22.5 | 0.00 | 1.32 | 0.84 | 70 | 1008.6 |
| 20260507133052 | 10 | 293 | 8.0 | 20.9 | 0.00 | 1.32 | 0.84 | 73 | 1008.6 |
| 20260507133043 | 10 | 289 | 8.0 | 20.9 | 0.00 | 1.32 | 0.84 | 73 | 1008.6 |
| 20260507131534 | 10 | 302 | 17.7 | 29.0 | 0.00 | 1.32 | 0.84 | 74 | 1008.7 |
| 20260507130025 | 10 | 265 | 16.1 | 27.4 | 0.00 | 1.32 | 0.84 | 78 | 1008.7 |
| 20260507124529 | 10 | 289 | 19.3 | 25.7 | 0.00 | 1.32 | 0.84 | 81 | 1008.5 |
| 20260507123021 | 10 | 311 | 12.9 | 27.4 | 0.00 | 1.32 | 0.84 | 84 | 1008.4 |
| 20260507121603 | 9 | 268 | 8.0 | 16.1 | 0.00 | 1.32 | 0.84 | 86 | 1008.5 |
| 20260507120056 | 9 | 282 | 6.4 | 16.1 | 0.00 | 1.32 | 0.84 | 87 | 1008.5 |
| 20260507114617 | 9 | 283 | 4.8 | 12.9 | 0.00 | 1.32 | 0.84 | 88 | 1008.2 |
| 20260507113041 | 9 | 305 | 6.4 | 14.5 | 0.00 | 1.32 | 0.84 | 88 | 1008.2 |
| 20260507111540 | 9 | 297 | 4.8 | 12.9 | 0.00 | 1.32 | 0.84 | 87 | 1008.3 |
| 20260507110038 | 9 | 311 | 6.4 | 14.5 | 0.00 | 1.32 | 0.84 | 88 | 1008.2 |
| 20260507104535 | 9 | 306 | 4.8 | 16.1 | 0.00 | 1.32 | 0.84 | 88 | 1008.1 |
| 20260507103033 | 10 | 305 | 4.8 | 16.1 | 0.03 | 1.32 | 0.84 | 89 | 1007.6 |
| 20260507101532 | 9 | 313 | 4.8 | 9.7 | 0.03 | 1.32 | 0.84 | 89 | 1007.7 |
| 20260507094528 | 9 | 303 | 4.8 | 9.7 | 0.15 | 1.32 | 0.84 | 89 | 1007.5 |
| 20260507093027 | 9 | 303 | 4.8 | 16.1 | 0.23 | 1.30 | 0.81 | 90 | 1007.7 |
| 20260507091530 | 10 | 330 | 4.8 | 16.1 | 0.36 | 1.30 | 0.81 | 90 | 1007.3 |
| 20260507090029 | 10 | 317 | 9.7 | 16.1 | 0.30 | 1.19 | 0.71 | 89 | 1007.4 |
| 20260507084519 | 10 | 310 | 9.7 | 16.1 | 0.33 | 1.17 | 0.69 | 89 | 1007.1 |
| 20260507083016 | 10 | 317 | 11.3 | 17.7 | 0.25 | 1.07 | 0.58 | 88 | 1007.6 |
| 20260507081513 | 10 | 288 | 8.0 | 16.1 | 0.15 | 0.94 | 0.46 | 88 | 1007.5 |
| 20260507080010 | 10 | 294 | 8.0 | 14.5 | 0.10 | 0.89 | 0.41 | 87 | 1007.6 |
| 20260507074507 | 10 | 322 | 8.0 | 16.1 | 0.05 | 0.84 | 0.36 | 87 | 1007.4 |
| 20260507073004 | 11 | 288 | 11.3 | 20.9 | 0.03 | 0.81 | 0.33 | 88 | 1007.3 |
| 20260507071502 | 11 | 308 | 11.3 | 17.7 | 0.00 | 0.79 | 0.30 | 89 | 1007.3 |
| 20260507070100 | 11 | 330 | 12.9 | 19.3 | 0.00 | 0.79 | 0.30 | 89 | 1006.9 |
| 20260507064603 | 11 | 328 | 4.8 | 12.9 | 0.00 | 0.79 | 0.30 | 88 | 1006.1 |
| 20260507063105 | 11 | 293 | 4.8 | 14.5 | 0.00 | 0.79 | 0.30 | 88 | 1006.5 |
| 20260507061553 | 11 | 295 | 11.3 | 17.7 | 0.00 | 0.79 | 0.30 | 88 | 1006.7 |
| 20260507060050 | 11 | 297 | 8.0 | 16.1 | 0.00 | 0.79 | 0.30 | 89 | 1006.7 |
| 20260507054548 | 11 | 293 | 11.3 | 19.3 | 0.00 | 0.79 | 0.30 | 88 | 1006.8 |
| 20260507053046 | 12 | 322 | 9.7 | 16.1 | 0.00 | 0.79 | 0.30 | 90 | 1007.0 |
| 20260507051544 | 12 | 276 | 6.4 | 16.1 | 0.00 | 0.79 | 0.30 | 89 | 1007.0 |
| 20260507050041 | 12 | 274 | 6.4 | 14.5 | 0.00 | 0.79 | 0.30 | 90 | 1006.8 |
| 20260507044538 | 12 | 274 | 8.0 | 22.5 | 0.03 | 0.79 | 0.30 | 90 | 1006.8 |
| 20260507043034 | 13 | 264 | 8.0 | 14.5 | 0.15 | 0.79 | 0.30 | 91 | 1006.8 |
| 20260507041532 | 13 | 275 | 3.2 | 8.0 | 0.18 | 0.79 | 0.30 | 91 | 1007.1 |
| 20260507040032 | 13 | 274 | 3.2 | 8.0 | 0.20 | 0.79 | 0.30 | 91 | 1006.9 |
| 20260507034500 | 13 | 270 | 4.8 | 12.9 | 0.18 | 0.76 | 0.28 | 91 | 1007.0 |
| 20260507033107 | 13 | 257 | 8.0 | 20.9 | 0.05 | 0.64 | 0.15 | 92 | 1007.1 |
| 20260507031556 | 14 | 276 | 4.8 | 14.5 | 0.03 | 0.61 | 0.13 | 93 | 1007.0 |
| 20260507030054 | 14 | 209 | 6.4 | 14.5 | 0.00 | 0.58 | 0.10 | 93 | 1006.6 |
| 20260507024602 | 14 | 200 | 4.8 | 14.5 | 0.00 | 0.58 | 0.10 | 92 | 1006.5 |
| 20260507023050 | 14 | 189 | 1.6 | 16.1 | 0.00 | 0.58 | 0.10 | 92 | 1006.5 |
| 20260507021546 | 13 | 219 | 4.8 | 16.1 | 0.00 | 0.58 | 0.10 | 93 | 1006.3 |
| 20260507020104 | 13 | 190 | 0.0 | 12.9 | 0.00 | 0.58 | 0.10 | 93 | 1006.5 |
| 20260507014544 | 13 | 189 | 0.0 | 11.3 | 0.00 | 0.58 | 0.10 | 93 | 1006.5 |
| 20260507013049 | 13 | 181 | 3.2 | 17.7 | 0.00 | 0.58 | 0.10 | 92 | 1006.4 |
| 20260507011524 | 13 | 185 | 0.0 | 9.7 | 0.00 | 0.58 | 0.10 | 92 | 1006.2 |
| 20260507010031 | 13 | 183 | 1.6 | 12.9 | 0.00 | 0.58 | 0.10 | 92 | 1006.6 |
| 20260507004522 | 13 | 200 | 8.0 | 17.7 | 0.00 | 0.58 | 0.10 | 92 | 1006.7 |
| 20260507003021 | 13 | 182 | 4.8 | 16.1 | 0.00 | 0.58 | 0.10 | 92 | 1006.8 |
| 20260507001600 | 13 | 196 | 4.8 | 17.7 | 0.00 | 0.58 | 0.10 | 92 | 1006.6 |
| 20260507000101 | 13 | 196 | 1.6 | 16.1 | 0.03 | 0.58 | 0.10 | 92 | 1006.4 |
| 20260506234557 | 13 | 128 | 0.0 | 17.7 | 0.05 | 0.58 | 0.10 | 92 | 1006.4 |
| 20260506233108 | 13 | 208 | 1.6 | 14.5 | 0.08 | 0.58 | 0.10 | 92 | 1006.2 |
| 20260506231559 | 13 | 178 | 0.0 | 11.3 | 0.08 | 0.58 | 0.10 | 92 | 1006.3 |
| 20260506230053 | 13 | 178 | 0.0 | 8.0 | 0.05 | 0.56 | 0.08 | 91 | 1006.2 |
| 20260506224553 | 13 | 185 | 0.0 | 11.3 | 0.05 | 0.53 | 0.05 | 91 | 1006.3 |
| 20260506223049 | 13 | 185 | 1.6 | 14.5 | 0.03 | 0.51 | 0.03 | 91 | 1006.2 |
| 20260506221549 | 14 | 151 | 0.0 | 8.0 | 0.05 | 0.51 | 0.03 | 91 | 1006.2 |
| 20260506220046 | 14 | 182 | 1.6 | 8.0 | 0.10 | 0.51 | 0.03 | 91 | 1006.2 |
| 20260506214544 | 14 | 186 | 0.0 | 8.0 | 0.10 | 0.48 | 0.00 | 91 | 1006.4 |
| 20260506213056 | 14 | 165 | 0.0 | 4.8 | 0.18 | 0.48 | 0.48 | 91 | 1006.4 |
| 20260506211538 | 14 | 89 | 0.0 | 11.3 | 0.20 | 0.46 | 0.46 | 91 | 1006.6 |
| 20260506210036 | 14 | 152 | 1.6 | 11.3 | 0.18 | 0.41 | 0.41 | 91 | 1006.8 |
| 20260506204536 | 14 | 162 | 0.0 | 0.0 | 0.18 | 0.38 | 0.38 | 90 | 1006.9 |
| 20260506201502 | 14 | 105 | 0.0 | 9.7 | 0.08 | 0.25 | 0.25 | 90 | 1007.0 |